This demonstration page uses our WeatherBlox Daily Observations layout. Learn more.

Left ArrowRight Arrow

Hourly Observations for September 30, 2021

Temp ( °F °C ) Dew Point ( °F °C ) Humidity (%) Winds ( mph kmh ) Pressure ( in mb ) Visibility ( mi km ) Precip ( " mm )
12:53 am 00:53 Mostly Cloudy 69 20.6 44 6.7 41 41 NNW 7 11 29.77 1008 10 16 0.00 0.00
1:53 am 01:53 Clear 72 22.2 43 6.1 35 35 Calm 29.77 1008 10 16 0.00 0.00
2:53 am 02:53 Clear 70 21.1 50 10 49 49 ESE 7 11 29.78 1009 10 16 0.00 0.00
3:53 am 03:53 Clear 69 20.6 56 13.3 63 63 SE 10 17 29.77 1008 10 16 0.00 0.00
4:53 am 04:53 Clear 70 21.1 61 16.1 73 73 SE 13 20 29.77 1008 9 14 0.00 0.00
5:53 am 05:53 Clear 70 21.1 65 18.3 84 84 ESE 8 13 29.78 1008 7 11 0.00 0.00
6:53 am 06:53 Clear with Mist and Fog 66 18.9 63 17.2 90 90 NNE 3 6 29.79 1009 6 10 0.00 0.00
7:53 am 07:53 Sunny with Mist and Fog 63 17.2 61 16.1 93 93 NE 3 6 29.82 1010 6 10 0.00 0.00
8:49 am 08:49 Hazy 66 19 63 17 88 88 undefined N/A 29.88 1012 6 10 0.00 0.00
8:53 am 08:53 Mostly Cloudy 68 20 63 17.2 84 84 undefined N/A 29.86 1011 7 11 0.00 0.00
9:16 am 09:16 Mostly Cloudy 70 21.1 64 17.8 82 82 W 12 19 29.87 1011 7 11 0.00 0.00
9:30 am 09:30 Partly Cloudy 71 21.7 63 17.2 76 76 WNW 14 22 29.86 1011 7 11 0.00 0.00
9:53 am 09:53 Sunny 73 22.8 57 13.9 57 57 NNW 16 26 29.88 1012 9 14 0.00 0.00
10:53 am 10:53 Sunny 76 24.4 50 10 40 40 NNW 26 43 29.90 1013 10 16 0.00 0.00
11:53 am 11:53 Sunny 77 25 50 10 39 39 N 31 50 29.90 1013 8 13 0.00 0.00
12:53 pm 12:53 Sunny 79 26.1 48 8.9 34 34 N 25 41 29.91 1013 10 16 0.00 0.00
1:53 pm 13:53 Sunny 81 27.2 49 9.4 33 33 N 22 35 29.86 1011 10 16 0.00 0.00
2:53 pm 14:53 Sunny 81 27.2 49 9.4 33 33 N 15 24 29.83 1010 10 16 0.00 0.00
3:53 pm 15:53 Sunny 81 27.2 49 9.4 33 33 N 13 20 29.82 1010 10 16 0.00 0.00
4:53 pm 16:53 Sunny 83 28.3 49 9.4 31 31 N 8 13 29.84 1010 10 16 0.00 0.00
5:53 pm 17:53 Sunny 81 27.2 50 10 34 34 NNE 17 28 29.83 1010 10 16 0.00 0.00
6:53 pm 18:53 Mostly Sunny 79 26.1 53 11.7 41 41 NNE 18 30 29.86 1011 10 16 0.00 0.00
7:53 pm 19:53 Clear 75 23.9 54 12.2 48 48 NNE 20 31 29.88 1012 10 16 0.00 0.00
8:53 pm 20:53 Mostly Clear 73 22.8 55 12.8 53 53 NNE 12 19 29.94 1014 10 16 0.00 0.00
9:53 pm 21:53 Mostly Cloudy 72 22.2 58 14.4 61 61 NNE 17 28 29.94 1014 10 16 0.00 0.00
10:53 pm 22:53 Mostly Cloudy with Light Rain 71 21.7 59 15 66 66 NNE 13 20 29.97 1015 9 14 0.00 0.00
11:53 pm 23:53 Partly Cloudy 66 18.9 62 16.7 87 87 ENE 9 15 29.96 1014 10 16 0.02 0.51

Powered by AerisWeather